Location: Berlise
(49.6641°N, 4.1077°E)
Time: 19:15:22
(UTC+00:00)

Meteor 1-16 Rocket - Pass Details

Date: 27 January 2021
Orbit: 790 x 908 km, 81.2° (Epoch: 27 February)

Event Time Altitude Azimuth Distance (km) Brightness Sun altitude
Rises 04:50:09 0° 190° (S) 3,514 7.3 -24.6°
Reaches altitude 10° 04:52:35 10° 190° (S) 2,583 6.6 -24.2°
Maximum altitude 04:58:31 90° 180° (S) 915 4.3 -23.2°
Drops below altitude 10° 05:04:29 10° 12° (NNE) 2,591 6.8 -22.2°
Sets 05:06:56 0° 13° (NNE) 3,526 7.6 -21.8°
